Hourly Weather Annaba

Today, 20 September, Sunday

Time Temperature Precipitation Wind Pressure Humidity
00:00 +27°C° 0.2 mm 2 mps 760 mmHg 68%
01:00 +27°C° 0 mm 1 mps 760 mmHg 71%
02:00 +27°C° 0.1 mm 1 mps 760 mmHg 73%
03:00 +26°C° 0.1 mm 2 mps 760 mmHg 75%
04:00 +26°C° 0.1 mm 2 mps 760 mmHg 78%
05:00 +26°C° 0 mm 2 mps 760 mmHg 78%
06:00 +26°C° 0 mm 2 mps 760 mmHg 79%
07:00 +26°C° 0 mm 2 mps 760 mmHg 81%
08:00 +27°C° 0 mm 3 mps 761 mmHg 76%
09:00 +28°C° 0 mm 3 mps 761 mmHg 72%
10:00 +29°C° 0 mm 3 mps 761 mmHg 68%
11:00 +29°C° 0 mm 4 mps 761 mmHg 65%
12:00 +30°C° 0 mm 4 mps 761 mmHg 63%
13:00 +30°C° 0 mm 4 mps 761 mmHg 60%
14:00 +30°C° 0.3 mm 4 mps 760 mmHg 62%
15:00 +29°C° 0.3 mm 4 mps 760 mmHg 63%
16:00 +29°C° 0.3 mm 3 mps 760 mmHg 64%
17:00 +28°C° 0.1 mm 3 mps 760 mmHg 68%
18:00 +27°C° 0.1 mm 2 mps 760 mmHg 72%
19:00 +26°C° 0.1 mm 2 mps 760 mmHg 76%
20:00 +26°C° 0.1 mm 1 mps 761 mmHg 77%
21:00 +25°C° 0.1 mm 1 mps 761 mmHg 78%
22:00 +23°C° 0.1 mm 0 mps 761 mmHg 79%
23:00 +23°C° 0 mm 0 mps 761 mmHg 79%

Tomorrow, 21 September, Monday

Time Temperature Precipitation Wind Pressure Humidity
00:00 +23°C° 0 mm 0 mps 761 mmHg 80%
01:00 +22°C° 0 mm 0 mps 761 mmHg 80%
02:00 +22°C° 0.1 mm 0 mps 761 mmHg 80%
03:00 +22°C° 0.1 mm 0 mps 760 mmHg 81%
04:00 +22°C° 0.1 mm 0 mps 760 mmHg 81%
05:00 +22°C° 0 mm 0 mps 760 mmHg 80%
06:00 +22°C° 0 mm 0 mps 760 mmHg 80%
07:00 +22°C° 0 mm 0 mps 760 mmHg 79%
08:00 +24°C° 0.1 mm 0 mps 760 mmHg 74%
09:00 +25°C° 0.1 mm 0 mps 761 mmHg 69%
10:00 +28°C° 0.1 mm 1 mps 761 mmHg 64%
11:00 +28°C° 0.2 mm 1 mps 761 mmHg 63%
12:00 +29°C° 0.2 mm 1 mps 761 mmHg 61%
13:00 +29°C° 0.2 mm 2 mps 760 mmHg 59%
14:00 +29°C° 0.1 mm 2 mps 760 mmHg 61%
15:00 +28°C° 0.1 mm 2 mps 760 mmHg 63%
16:00 +28°C° 0.1 mm 2 mps 760 mmHg 64%
17:00 +27°C° 0 mm 2 mps 760 mmHg 67%
18:00 +26°C° 0 mm 1 mps 760 mmHg 70%
19:00 +26°C° 0 mm 1 mps 760 mmHg 73%
20:00 +26°C° 0.1 mm 1 mps 760 mmHg 74%
21:00 +25°C° 0.1 mm 1 mps 760 mmHg 76%
22:00 +25°C° 0.1 mm 2 mps 760 mmHg 77%
23:00 +25°C° 0.6 mm 1 mps 760 mmHg 79%

Day after tomorrow, 22 September, Tuesday

Time Temperature Precipitation Wind Pressure Humidity
00:00 +24°C° 0.6 mm 1 mps 760 mmHg 82%
01:00 +24°C° 0.6 mm 1 mps 760 mmHg 84%
02:00 +24°C° 0.3 mm 1 mps 760 mmHg 84%
03:00 +22°C° 0.3 mm 0 mps 759 mmHg 85%
04:00 +21°C° 0.3 mm 0 mps 759 mmHg 86%
05:00 +23°C° 0.1 mm 1 mps 759 mmHg 85%
06:00 +24°C° 0.1 mm 1 mps 759 mmHg 84%
07:00 +24°C° 0.1 mm 1 mps 759 mmHg 83%
08:00 +25°C° 0 mm 1 mps 759 mmHg 78%
09:00 +26°C° 0 mm 1 mps 759 mmHg 72%
10:00 +28°C° 0 mm 1 mps 759 mmHg 67%
11:00 +29°C° 0 mm 2 mps 759 mmHg 65%
12:00 +29°C° 0 mm 2 mps 759 mmHg 63%
13:00 +30°C° 0 mm 2 mps 759 mmHg 60%
14:00 +30°C° 0 mm 2 mps 759 mmHg 62%
15:00 +29°C° 0 mm 3 mps 758 mmHg 64%
16:00 +29°C° 0 mm 3 mps 758 mmHg 66%
17:00 +28°C° 0 mm 2 mps 758 mmHg 70%
18:00 +27°C° 0 mm 2 mps 758 mmHg 74%
19:00 +26°C° 0 mm 2 mps 758 mmHg 78%
20:00 +26°C° 0 mm 1 mps 759 mmHg 78%
21:00 +26°C° 0 mm 1 mps 759 mmHg 79%
22:00 +26°C° 0 mm 1 mps 759 mmHg 79%
23:00 +25°C° 0.1 mm 1 mps 759 mmHg 80%

23 September, Wednesday

Time Temperature Precipitation Wind Pressure Humidity
00:00 +25°C° 0.1 mm 1 mps 759 mmHg 80%
01:00 +25°C° 0.1 mm 1 mps 759 mmHg 80%
02:00 +25°C° 0.1 mm 1 mps 759 mmHg 81%
03:00 +25°C° 0.1 mm 1 mps 758 mmHg 82%
04:00 +24°C° 0.1 mm 1 mps 758 mmHg 83%
05:00 +25°C° 0 mm 1 mps 758 mmHg 82%
06:00 +25°C° 0 mm 1 mps 758 mmHg 80%
07:00 +23°C° 0 mm 0 mps 759 mmHg 79%
08:00 +26°C° 0 mm 1 mps 759 mmHg 73%
09:00 +28°C° 0 mm 1 mps 759 mmHg 68%
10:00 +29°C° 0 mm 1 mps 759 mmHg 62%
11:00 +30°C° 0 mm 1 mps 759 mmHg 60%
12:00 +31°C° 0 mm 1 mps 759 mmHg 57%
13:00 +31°C° 0 mm 2 mps 759 mmHg 55%
14:00 +31°C° 0 mm 2 mps 759 mmHg 57%
15:00 +30°C° 0 mm 2 mps 758 mmHg 60%
16:00 +30°C° 0 mm 3 mps 758 mmHg 63%
17:00 +29°C° 0 mm 2 mps 758 mmHg 67%
18:00 +28°C° 0 mm 1 mps 759 mmHg 71%
19:00 +27°C° 0 mm 1 mps 759 mmHg 75%
20:00 +27°C° 0 mm 1 mps 759 mmHg 75%
21:00 +26°C° 0 mm 1 mps 760 mmHg 75%
22:00 +26°C° 0 mm 1 mps 760 mmHg 75%
23:00 +26°C° 0 mm 1 mps 760 mmHg 74%

24 September, Thursday

Time Temperature Precipitation Wind Pressure Humidity
00:00 +26°C° 0 mm 1 mps 760 mmHg 74%
01:00 +26°C° 0 mm 1 mps 760 mmHg 74%
02:00 +26°C° 0 mm 1 mps 759 mmHg 73%
03:00 +26°C° 0 mm 1 mps 759 mmHg 73%
04:00 +26°C° 0 mm 1 mps 759 mmHg 73%
05:00 +26°C° 0 mm 1 mps 759 mmHg 71%
06:00 +26°C° 0 mm 1 mps 760 mmHg 70%
07:00 +26°C° 0 mm 1 mps 760 mmHg 69%
08:00 +28°C° 0 mm 1 mps 760 mmHg 62%
09:00 +30°C° 0 mm 1 mps 760 mmHg 56%
10:00 +32°C° 0 mm 1 mps 761 mmHg 49%
11:00 +34°C° 0 mm 2 mps 760 mmHg 45%
12:00 +35°C° 0 mm 2 mps 760 mmHg 42%
13:00 +36°C° 0 mm 3 mps 759 mmHg 38%
14:00 +35°C° 0 mm 4 mps 759 mmHg 41%
15:00 +35°C° 0 mm 5 mps 758 mmHg 44%
16:00 +34°C° 0 mm 5 mps 758 mmHg 47%
17:00 +32°C° 0 mm 5 mps 758 mmHg 51%
18:00 +30°C° 0 mm 4 mps 757 mmHg 56%
19:00 +28°C° 0 mm 3 mps 757 mmHg 60%
20:00 +28°C° 0 mm 3 mps 758 mmHg 59%
21:00 +28°C° 0 mm 2 mps 758 mmHg 58%
22:00 +28°C° 0 mm 2 mps 758 mmHg 57%
23:00 +28°C° 0 mm 3 mps 758 mmHg 57%

25 September, Friday

Time Temperature Precipitation Wind Pressure Humidity
00:00 +28°C° 0 mm 3 mps 758 mmHg 57%
01:00 +28°C° 0 mm 4 mps 758 mmHg 57%
02:00 +27°C° 0 mm 3 mps 757 mmHg 66%
03:00 +26°C° 0 mm 2 mps 757 mmHg 76%
04:00 +25°C° 0 mm 2 mps 757 mmHg 85%
05:00 +26°C° 0 mm 2 mps 758 mmHg 82%
06:00 +26°C° 0 mm 2 mps 758 mmHg 79%
07:00 +26°C° 0 mm 2 mps 759 mmHg 76%
08:00 +28°C° 0 mm 2 mps 759 mmHg 69%
09:00 +29°C° 0 mm 3 mps 759 mmHg 61%
10:00 +31°C° 0 mm 3 mps 759 mmHg 53%
11:00 +32°C° 0 mm 4 mps 759 mmHg 54%
12:00 +32°C° 0 mm 5 mps 759 mmHg 55%
13:00 +32°C° 0 mm 6 mps 759 mmHg 56%
14:00 +32°C° 0 mm 6 mps 758 mmHg 56%
15:00 +30°C° 0 mm 5 mps 758 mmHg 57%
16:00 +30°C° 0 mm 5 mps 758 mmHg 57%
17:00 +29°C° 0 mm 4 mps 759 mmHg 60%
18:00 +28°C° 0 mm 4 mps 759 mmHg 64%
19:00 +27°C° 0 mm 3 mps 759 mmHg 68%
20:00 +27°C° 0 mm 3 mps 759 mmHg 69%
21:00 +26°C° 0 mm 3 mps 759 mmHg 71%
22:00 +26°C° 0 mm 2 mps 760 mmHg 73%
23:00 +25°C° 0 mm 2 mps 759 mmHg 74%
Show more